User: anonymous   Login
Location: Unspecified
(0.0000°N, 0.0000°E)
Time: 23:16:03
(UTC+00:00)
Language:

STARLINK-35745 - Orbit

View from above orbital plane
View from above orbital plane
View from above satellite
View from above satellite

Ground track
Ground track

The orbit is defined by the following mean orbital elements,

1 66271U          26145.51338345 +.00000000 +00000-0 +32469-3 0 00002
2 66271  53.1589 194.7552 0001157  76.8611 283.2519 15.30201581    07
Epoch (UTC): 25 May 2026 12:19:16
Eccentricity: 0.0001157
inclination: 53.1589°
perigee height: 474 km
apogee height: 476 km
right ascension of ascending node: 194.7552°
argument of perigee: 76.8611°
revolutions per day: 15.30201581
mean anomaly at epoch: 283.2519°

The dashed part of the orbit path shows where the satellite is in the earth's shadow,  

DLR